This is the latest recevied weather packets stored in our database for station/object RK6MF-10. If no packets are shown the sender has not sent any weather packets the latest 10 day(s).
| Time | Temp. | Humidity | Pressure | Rain* | Wind** | Luminosity | Snow |
|---|---|---|---|---|---|---|---|
| 1777703570 | 15° C | 47% | 1017.1 hPa | - | - | - | - |
| 1777702670 | 15° C | 46% | 1017 hPa | - | - | - | - |
| 1777701770 | 13.33° C | 49% | 1017.1 hPa | - | - | - | - |
| 1777700870 | 13.89° C | 50% | 1017.1 hPa | - | - | - | - |
| 1777699970 | 13.33° C | 55% | 1017 hPa | - | - | - | - |
| 1777699070 | 13.33° C | 55% | 1017.2 hPa | - | - | - | - |
| 1777698170 | 12.78° C | 61% | 1017.2 hPa | - | - | - | - |
| 1777697270 | 12.22° C | 73% | 1017.1 hPa | - | - | - | - |
| 1777696370 | 10.56° C | 100% | 1017 hPa | - | - | - | - |
| 1777695469 | 7.22° C | 100% | 1017 hPa | - | - | - | - |
| 1777694570 | 6.11° C | 100% | 1017 hPa | - | - | - | - |
| 1777693669 | 5° C | 100% | 1016.9 hPa | - | - | - | - |
| 1777692769 | 4.44° C | 100% | 1016.8 hPa | - | - | - | - |
| 1777691869 | 3.89° C | 100% | 1016.8 hPa | - | - | - | - |
| 1777690969 | 3.33° C | 100% | 1016.6 hPa | - | - | - | - |
| 1777690069 | 2.78° C | 100% | 1016.4 hPa | - | - | - | - |
| 1777689169 | 2.78° C | 100% | 1016.3 hPa | - | - | - | - |
| 1777688269 | 2.78° C | 100% | 1016.2 hPa | - | - | - | - |
| 1777686995 | 2.78° C | 100% | 1016.1 hPa | - | - | - | - |
| 1777686095 | 3.33° C | 100% | 1015.9 hPa | - | - | - | - |
| 1777685195 | 3.89° C | 100% | 1015.9 hPa | - | - | - | - |
| 1777684295 | 4.44° C | 100% | 1015.9 hPa | - | - | - | - |
| 1777683395 | 4.44° C | 100% | 1015.8 hPa | - | - | - | - |
| 1777682495 | 4.44° C | 100% | 1016 hPa | - | - | - | - |
| 1777681594 | 5° C | 100% | 1016 hPa | - | - | - | - |
* Rain since midnight (hover to see other rain measurements)
** Current wind speed in m/s (hover to see current wind gust speed)